Dewpoint
41 43 43 42 39 40 41 40 37 39 40 40 43 44 49 49 50 50 52 53 54 55 58 62 64 66 68 69 70 70 69 71
41 42 43 41 43 37 39 37 33 36 38 37 44 45 48 49 49 50 51 54 55 56 57 60 63 65 67 68 69 70 69 70
40 37 38 41 39 39 38 36 33 31 31 44 43 44 47 48 49 48 48 53 56 57 58 59 62 64 67 68 69 69 70 70
35 25 37 40 39 37 35 39 38 34 29 37 41 41 44 46 48 52 55 56 58 60 61 63 65 66 67 68 68 69 71 73
24 33 38 36 40 38 36 37 38 28 31 40 41 44 47 47 53 59 60 61 62 64 67 68 69 70 70 70 70 70 73 73
25 30 34 36 39 39 35 34 36 30 35 39 41 44 46 50 57 62 64 65 66 67 68 70 70 71 71 71 72 73 72 71
24 24 34 31 34 38 36 35 34 34 32 36 42 44 47 55 62 64 65 65 67 67 69 70 70 70 70 71 71 71 70 68
22 21 22 23 25 34 36 36 35 35 33 38 45 55 57 60 62 64 65 66 67 68 69 69 70 70 69 69 68 68 66 66
24 23 22 24 27 35 37 37 36 35 35 52 53 52 56 61 62 64 66 67 68 68 69 69 69 69 67 66 65 65 65 63
23 31 24 23 25 32 36 37 37 43 47 50 51 53 59 62 64 67 68 68 69 68 68 68 67 66 64 63 64 64 64 62
25 26 28 28 34 32 36 37 39 41 54 58 61 62 64 66 67 68 69 68 68 68 67 68 66 64 63 62 63 63 63 63
34 23 24 27 31 36 29 28 40 50 57 59 58 47 54 67 68 69 69 69 68 67 66 65 64 62 62 62 62 62 63 63
30 24 24 31 28 38 33 35 42 51 58 59 54 50 63 67 68 68 68 67 66 65 65 66 64 63 62 62 62 63 63 63
33 31 29 35 37 33 45 47 48 54 61 61 59 65 66 68 68 67 65 65 64 65 65 66 65 64 63 63 64 64 63 63
31 28 47 43 41 43 42 50 54 58 60 61 63 65 67 67 67 65 64 64 63 63 65 66 66 66 64 65 66 64 63 62
36 36 37 40 44 43 46 47 55 58 60 61 64 66 66 66 65 64 63 63 62 63 64 65 66 67 66 66 65 63 63 63
39 39 39 40 46 45 49 50 55 60 62 63 65 66 66 66 64 63 63 63 62 62 64 65 66 66 65 65 61 60 60 60
28 46 45 47 48 50 54 56 60 63 62 64 66 67 66 66 65 65 64 63 63 63 64 65 66 66 64 63 60 58 57 57
49 44 44 48 50 53 57 60 62 63 64 65 66 66 65 65 66 64 64 64 64 64 65 66 67 66 63 63 62 60 58 58
Lifted_Index
1 1 0 -0 -0 0 1 1 1 2 2 2 2 1 0 -0 -0 -1 -0 -0 -0 -1 -1 -1 -2 -3 -3 -4 -4 -4 -4 -5
1 1 0 0 0 0 1 1 1 1 2 2 2 1 0 -0 -0 -0 0 0 -0 -0 -1 -1 -2 -3 -3 -4 -4 -4 -4 -4
1 1 1 0 0 0 1 1 1 1 2 2 2 1 0 0 0 0 1 0 -0 -0 -1 -1 -2 -2 -3 -4 -4 -4 -5 -5
1 1 1 0 0 0 1 1 1 2 2 3 2 2 1 1 1 1 0 -0 -1 -1 -2 -2 -3 -3 -4 -4 -4 -4 -5 -5
1 1 1 1 0 0 1 1 1 1 2 3 3 2 2 1 0 -1 -1 -2 -2 -3 -3 -3 -4 -4 -4 -4 -4 -4 -4 -5
1 1 1 1 1 1 1 1 1 1 2 3 3 2 2 1 -1 -2 -3 -3 -4 -4 -4 -4 -4 -4 -4 -4 -4 -4 -4 -4
1 2 2 2 2 1 1 1 1 1 2 2 2 2 1 -1 -2 -4 -4 -5 -4 -4 -4 -4 -3 -4 -4 -4 -4 -4 -4 -4
1 1 2 1 2 1 1 1 1 1 1 2 1 0 -1 -2 -3 -4 -5 -5 -4 -4 -4 -4 -4 -4 -4 -4 -4 -3 -2 -2
1 1 1 1 1 1 1 1 1 1 1 0 0 -1 -2 -3 -4 -5 -5 -5 -4 -4 -4 -4 -4 -4 -3 -2 -1 -0 1 2
1 1 1 1 2 1 1 1 1 1 -0 -1 -2 -2 -3 -4 -5 -5 -5 -5 -4 -4 -4 -4 -3 -2 -0 1 2 3 4 4
1 1 1 2 1 1 1 1 1 0 -2 -3 -3 -3 -4 -5 -5 -5 -5 -5 -4 -4 -3 -2 -1 1 2 3 4 4 4 5
1 1 1 2 1 1 1 1 1 -1 -3 -4 -3 -3 -4 -5 -5 -5 -5 -4 -3 -2 -1 -0 1 2 3 4 4 4 5 5
2 1 2 2 1 1 1 1 0 -1 -3 -3 -3 -3 -4 -5 -5 -5 -4 -3 -2 -1 -0 1 2 3 3 4 4 5 5 6
2 2 2 2 2 1 1 1 -0 -2 -3 -4 -4 -4 -5 -6 -5 -5 -3 -1 -0 0 1 1 2 3 3 4 4 5 5 6
3 2 2 2 1 1 1 0 -1 -2 -3 -4 -4 -5 -6 -6 -5 -4 -2 -0 1 1 1 1 1 2 2 3 4 4 5 5
2 2 2 2 1 1 1 0 -1 -3 -4 -4 -5 -5 -6 -6 -5 -3 -1 0 1 1 1 1 1 1 2 3 4 5 5 5
2 2 2 1 1 1 0 -0 -2 -3 -4 -5 -5 -5 -5 -5 -4 -2 -1 0 1 0 0 0 0 1 2 3 5 5 5 5
2 2 1 1 1 0 -1 -2 -3 -4 -4 -5 -5 -5 -5 -4 -3 -2 -1 -0 -0 -0 -0 -0 -0 1 2 3 5 5 5 5
1 1 1 1 1 -0 -2 -3 -3 -4 -4 -5 -5 -5 -5 -4 -3 -2 -2 -1 -1 -1 -1 -1 -1 0 2 3 5 5 4 4